Regional Weather Roundup
Issued by NWS Upton, NY

Current Version | Previous Version | Text Only | Print | Product List | Glossary On
Versions: 1 2 3 4 5 6 7 8 9 10 11 12 13 14 15 16 17 18 19 20 21 22 23 24 25 26 27 28 29 30 31 32 33 34 35 36 37 38 39 40 41 42 43 44 45 46 47 48 49 50
000 ASUS41 KOKX 270904 RWROKX REGIONAL WEATHER ROUNDUP NATIONAL WEATHER SERVICE NEW YORK NY 500 AM EDT THU AUG 27 2015 NOTE: "FAIR" INDICATES FEW OR NO CLOUDS BELOW 12,000 FEET WITH NO SIGNIFICANT WEATHER AND/OR OBSTRUCTIONS TO VISIBILITY. NYZ071-072-176-178-NJZ106-104-271000- NEW YORK CITY METRO AREA CITY SKY/WX TMP DP RH WIND PRES REMARKS CENTRAL PARK CLEAR 67 54 63 NW5 30.04R LAGUARDIA APRT CLEAR 69 55 60 NW5 30.00R KENNEDY INTL PTCLDY 68 54 60 NW7 30.01S NEWARK/LIBERTY PTCLDY 66 56 70 W3 30.01S BRNX BOT. GARD N/A 63 55 77 E2 30.01R TETERBORO CLEAR 64 54 69 NW5 30.00S $$ NYZ177-179-078>081-271000- LONG ISLAND NEW YORK CITY SKY/WX TMP DP RH WIND PRES REMARKS FARMINGDALE CLEAR 65 57 75 NW3 30.00R ISLIP CLEAR 62 57 83 CALM 29.98R SHIRLEY CLEAR 62 56 80 NW3 30.00R WESTHAMPTON CLEAR 56 53 90 CALM 30.00R MONTAUK POINT N/A 70 57 63 N6 29.99R $$ NYZ052-065-067-271000- HUDSON VALLEY CITY SKY/WX TMP DP RH WIND PRES REMARKS WHITE PLAINS CLEAR 61 55 81 NW3 30.00S NEWBURGH NOT AVBL MONTGOMERY CLOUDY 65 56 72 W8 30.01S POUGHKEEPSIE CLOUDY 59 56 89 CALM 30.00S ALBANY MOCLDY 64 56 75 CALM 30.00S $$ NJZ001-105-106-008-010-013-015-019>022-104-271000- NEW JERSEY CITY SKY/WX TMP DP RH WIND PRES REMARKS NEWARK/LIBERTY PTCLDY 66 56 70 W3 30.01S TETERBORO CLEAR 64 54 69 NW5 30.00S CALDWELL MOCLDY 60 54 80 CALM 30.03R MORRISTOWN CLEAR 54 50 87 CALM 30.03R SOMERVILLE CLEAR 56 52 86 CALM 30.02R SUSSEX CLOUDY 57 54 89 CALM 30.04R ANDOVER N/A 57 56 96 SW3 30.05R TRENTON CLEAR 61 55 81 NW3 30.04R MILLVILLE CLEAR 55 53 93 CALM 30.04S ATLANTIC CITY CLEAR 58 53 84 NW5 30.03F WRIGHTSTOWN CLEAR 61 56 82 W2 30.01S TOMS RIVER CLEAR 55 52 88 CALM 30.03S BELMAR CLEAR 61 52 72 W5 30.03R $$ PAZ047>061-062-071-271000- EASTERN PENNSYLVANIA CITY SKY/WX TMP DP RH WIND PRES REMARKS PHILADELPHIA CLEAR 66 53 63 NW6 30.05S ALLENTOWN MOCLDY 59 55 87 SW6 30.04S SCRANTON MOCLDY 63 54 72 N9 30.06S $$ CTZ002-004>006-009-010-012-RIZ004-006-007-MAZ004-011-015-271000- SOUTHERN NEW ENGLAND IN CT CITY SKY/WX TMP DP RH WIND PRES REMARKS BRADLEY INTL CLEAR 57 53 86 CALM 29.98S HARTFORD CLEAR 59 57 93 CALM 29.99R DANBURY CLEAR 55 51 86 SW3 30.02S WTRBRY/OXFORD CLEAR 59 48 67 N5 30.02R BRIDGEPORT CLEAR 63 56 78 NW5 29.99R MERIDEN CLEAR 55 52 89 CALM 29.99R NEW HAVEN CLEAR 64 53 67 NW7 29.99R CHESTER NOT AVBL GROTON CLEAR 61 55 81 CALM 29.97R WILLIMANTIC CLEAR 55 52 89 CALM 29.99R IN RI CITY SKY/WX TMP DP RH WIND PRES REMARKS PROVIDENCE CLEAR 64 54 69 W3 29.96S BLOCK ISLAND CLEAR 64 57 77 NW5 29.97R WESTERLY CLEAR 63 54 72 NW5 29.97R IN MA CITY SKY/WX TMP DP RH WIND PRES REMARKS BOSTON CLEAR 66 55 67 W10 29.94R WORCESTER CLEAR 59 52 77 W12 29.98S WESTFIELD CLEAR 59 53 80 CALM 29.98S PROVINCETOWN CLEAR 68 57 68 NW13 29.93R NANTUCKET CLEAR 66 58 75 W6 29.94R $$ ANZ330-335-338-340-345-350-353-355-271000- COASTAL MARINE OBSERVATIONS STATION/POSITION TIME SKY/WX TEMP WIND PRES VSBY WAVE AIR SEA DIR/SP/G HT/PER (UTC) (F) (DEG/KT/KT) (MB) (MI) (FT/S) NY HARB ENTRANCE 0750 72 76 330/ 10/ 14 1015.3 2/10 4S FIRE IS NOT AVBL 20S FIRE ISLAND 0750 72 74 330/ 14/ 17 1014.9 2/ 4 GREAT SOUTH BAY NOT AVBL 23SW MTP 0850 71 72 340/ 12/ 14 1014.4 2/11 HUDSON CANYON NOT AVBL KINGS POINT NOT AVBL EXECUTION ROCKS 0800 70 300/ 6/ 8 N/A CENTRAL LI SOUND NOT AVBL EASTERN LI SOUND 0800 69 71 340/ 10/ 14 N/A ROBBINS REEF NOT AVBL $$ >>>>>>>>>>>>>>>>>>>>>>>>>>>> KEY <<<<<<<<<<<<<<<<<<<<<<<<<<< > < > SKY/WX - SKY CONDITION/PRESENT WEATHER < > TMP - TEMPERATURE IN FAHRENHEIT < > DP - DEWPOINT IN FAHRENHEIT < > RH - RELATIVE HUMIDITY IN PERCENT < > WIND - DIRECTION AND SPEED IN MPH < > PRES - MEAN SEA LEVEL PRESSURE IN INCHES OF HG < > WCI - WIND CHILL INDEX < > VSB - VISIBILITY IN MILES < > HX - HEAT INDEX < > TC - TEMPERATURE IN CELSIUS < > VRB - VARIABLE WIND DIRECTION < > < >>>>>>>>>>>>>>>>>>>>>>>>>>>> KEY <<<<<<<<<<<<<<<<<<<<<<<<<<<

USA.gov is the U.S. government's official web portal to all federal, state and local government web resources and services.